Jefferson, NC

6:51 PM EDT on October 01, 2016 (GMT -0400)
Ashe County

Weather History for KGEV - December, 2009

Change the Weather History Date:

Friday, December 25, 2009

  Actual Average Record
Temperature  
Mean Temperature 34 °F -  
Max Temperature 39 °F 40 °F 65 °F (1987)
Min Temperature 28 °F 22 °F -9 °F (1983)
Degree Days  
Heating Degree Days 32    
Moisture  
Dew Point 32 °F    
Average Humidity 89    
Maximum Humidity 93    
Minimum Humidity 80    
Precipitation  
Precipitation 1.43 in - - ()
Sea Level Pressure  
Sea Level Pressure 29.90 in    
Wind  
Wind Speed 4 mph (SE)    
Max Wind Speed 9 mph    
Max Gust Speed 20 mph    
Visibility 2 miles    
Events Fog , Rain , Snow    
Averages and records for this station are not official NWS values.
T = Trace of Precipitation, MM = Missing Value Source: NWS Daily Summary

Daily Weather History Graph

Daily Weather History Graph

Search for Another Location

Airport or City:

Trip Planner

Search our weather history database for the weather conditions in past years. The results will help you decide how hot, cold, wet, or windy it might be!

Date:

Astronomy

Dec. 25, 2009 Rise Set
Actual Time 7:35 AM EST 5:16 PM EST
Civil Twilight 7:06 AM EST 5:45 PM EST
Nautical Twilight 6:34 AM EST 6:17 PM EST
Astronomical Twilight 6:03 AM EST 6:48 PM EST
Moon 12:24 PM EST (12/25) 1:01 AM EST (12/25)
Length of Visible Light 10h 38m
Length of Day
9h 40m
First Quarter, 60% of the Moon is Illuminated
Dec 25
First Quarter
Dec 31
Full
Jan 7
Last Quarter
Jan 15
New
Jan 23
First Quarter

Hourly Weather History & Observations

Time (EST) Temp. Windchill Dew Point Humidity Pressure Visibility Wind Dir Wind Speed Gust Speed Precip Events Conditions
12:20 AM 28.4 °F 23.3 °F 24.8 °F 86% 30.09 in 3.0 mi SE 4.6 mph - N/A   Overcast
12:40 AM 28.4 °F 23.3 °F 24.8 °F 86% 30.08 in 5.0 mi SE 4.6 mph - N/A   Overcast
1:00 AM 28.4 °F 22.2 °F 26.6 °F 93% 30.08 in 3.0 mi SSE 5.8 mph 16.1 mph N/A   Overcast
1:20 AM 28.4 °F 23.3 °F 26.6 °F 93% 30.06 in 3.0 mi SE 4.6 mph - 0.02 in   Overcast
1:40 AM 28.4 °F 22.2 °F 26.6 °F 93% 30.04 in 7.0 mi SE 5.8 mph - 0.02 in   Overcast
2:01 AM 30.2 °F 24.3 °F 26.6 °F 86% 30.04 in 7.0 mi ESE 5.8 mph - N/A   Overcast
2:20 AM 30.2 °F 25.4 °F 26.6 °F 86% 30.03 in 10.0 mi East 4.6 mph - N/A   Overcast
2:40 AM 30.2 °F 25.4 °F 26.6 °F 86% 30.00 in 10.0 mi East 4.6 mph - N/A   Overcast
3:00 AM 30.2 °F - 26.6 °F 86% 29.99 in 10.0 mi Calm Calm - N/A   Overcast
3:20 AM 32.0 °F 28.7 °F 26.6 °F 80% 29.99 in 7.0 mi SE 3.5 mph - N/A   Overcast
3:42 AM 32.0 °F 28.7 °F 28.4 °F 87% 29.97 in 3.0 mi NW 3.5 mph - 0.03 in Snow Snow
4:00 AM 33.8 °F 27.0 °F 32.0 °F 93% 29.95 in 2.5 mi ESE 8.1 mph - 0.01 in   Overcast
4:20 AM 33.8 °F - 30.2 °F 87% 29.96 in 2.5 mi Calm Calm - 0.03 in   Overcast
4:40 AM 33.8 °F 27.7 °F 32.0 °F 93% 29.94 in 1.2 mi SSE 6.9 mph - 0.10 in Snow Light Snow
5:00 AM 33.8 °F 26.4 °F 32.0 °F 93% 29.93 in 2.5 mi SE 9.2 mph 19.6 mph 0.02 in Snow Snow
5:20 AM 33.8 °F 27.7 °F 30.2 °F 87% 29.93 in 2.0 mi SSE 6.9 mph - 0.05 in   Overcast
5:42 AM 33.8 °F 27.7 °F 30.2 °F 87% 29.93 in 1.8 mi SE 6.9 mph - 0.15 in Snow Snow
6:00 AM 33.8 °F 29.6 °F 30.2 °F 87% 29.92 in 2.0 mi SSE 4.6 mph - 0.01 in Snow Light Snow
6:21 AM 33.8 °F - 30.2 °F 87% 29.94 in 2.5 mi Calm Calm - 0.07 in Snow Light Snow
6:40 AM 33.8 °F 30.8 °F 30.2 °F 87% 29.93 in 2.0 mi SSE 3.5 mph - 0.14 in Snow Light Snow
7:00 AM 33.8 °F 27.0 °F 30.2 °F 87% 29.94 in 2.5 mi SE 8.1 mph - 0.02 in Snow Snow
7:20 AM 33.8 °F 29.6 °F 30.2 °F 87% 29.94 in 3.0 mi SSE 4.6 mph - 0.08 in Snow Snow
7:40 AM 33.8 °F 29.6 °F 32.0 °F 93% 29.93 in 2.5 mi SE 4.6 mph - 0.17 in Snow Light Snow
8:00 AM 33.8 °F 30.8 °F 32.0 °F 93% 29.92 in 2.0 mi SE 3.5 mph - 0.03 in Snow Light Snow
8:20 AM 33.8 °F 27.0 °F 32.0 °F 93% 29.91 in 2.0 mi ESE 8.1 mph - 0.10 in Snow Snow
8:40 AM 35.6 °F - 32.0 °F 87% 29.89 in 2.0 mi Calm Calm - 0.15 in Snow Light Snow
9:00 AM 35.6 °F 29.9 °F 32.0 °F 87% 29.89 in 1.0 mi ESE 6.9 mph - 0.04 in Snow Snow
9:20 AM 35.6 °F 29.2 °F 32.0 °F 87% 29.88 in 1.5 mi SE 8.1 mph - 0.10 in Snow Snow
9:40 AM 35.6 °F 29.9 °F 32.0 °F 87% 29.88 in 1.2 mi SSE 6.9 mph - 0.18 in Snow Light Snow
10:02 AM 35.6 °F 31.7 °F 32.0 °F 87% 29.89 in 1.5 mi SE 4.6 mph - 0.03 in Snow Snow
10:20 AM 35.6 °F 32.8 °F 32.0 °F 87% 29.88 in 1.8 mi South 3.5 mph - 0.08 in Snow Snow
10:40 AM 35.6 °F 30.7 °F 32.0 °F 87% 29.88 in 1.0 mi South 5.8 mph - 0.16 in   Overcast
11:00 AM 35.6 °F - 32.0 °F 87% 29.87 in 1.0 mi Calm Calm - 0.01 in   Overcast
11:20 AM 35.6 °F - 32.0 °F 87% 29.88 in 1.5 mi Calm Calm - 0.08 in Snow Light Snow
11:40 AM 35.6 °F 31.7 °F 32.0 °F 87% 29.87 in 1.2 mi SSW 4.6 mph - 0.16 in   Overcast
12:01 PM 35.6 °F - 32.0 °F 87% 29.87 in 1.2 mi Calm Calm - 0.03 in   Overcast
12:20 PM 35.6 °F 32.8 °F 32.0 °F 87% 29.87 in 1.0 mi SW 3.5 mph - 0.08 in   Overcast
12:40 PM 35.6 °F 32.8 °F 33.8 °F 93% 29.85 in 1.0 mi SSE 3.5 mph - 0.12 in Rain Light Rain
1:00 PM 37.4 °F - 33.8 °F 87% 29.83 in 1.2 mi Calm Calm - N/A Rain Light Rain
1:20 PM 37.4 °F 34.9 °F 35.6 °F 93% 29.83 in 2.0 mi East 3.5 mph - 0.02 in   Heavy Drizzle
1:41 PM 39.2 °F 34.2 °F 35.6 °F 87% 29.82 in 2.0 mi ESE 6.9 mph - 0.04 in   Heavy Drizzle
2:01 PM 39.2 °F 35.9 °F 35.6 °F 87% 29.81 in 1.5 mi SE 4.6 mph - N/A   Drizzle
2:20 PM 39.2 °F - 35.6 °F 87% 29.80 in 0.5 mi Calm Calm - 0.01 in   Drizzle
2:40 PM 39.2 °F - 35.6 °F 87% 29.79 in 0.5 mi Calm Calm - 0.01 in   Light Drizzle
3:00 PM 37.4 °F 32.8 °F 35.6 °F 93% 29.79 in 1.0 mi West 5.8 mph - N/A Rain Light Rain
3:20 PM 39.2 °F - 35.6 °F 87% 29.79 in 0.5 mi Calm Calm - N/A   Light Drizzle
3:40 PM 39.2 °F - 35.6 °F 87% 29.79 in 0.2 mi Calm Calm - N/A Fog Fog
4:00 PM 39.2 °F - 35.6 °F 87% 29.79 in 0.2 mi Calm Calm - N/A Fog Fog
4:20 PM 39.2 °F - 35.6 °F 87% 29.78 in 0.2 mi Calm Calm - N/A   Light Drizzle
4:40 PM 39.2 °F - 35.6 °F 87% 29.79 in 0.2 mi Calm Calm - N/A   Light Drizzle
5:00 PM 39.2 °F 37.0 °F 35.6 °F 87% 29.80 in 0.2 mi NNW 3.5 mph - N/A Rain Light Rain
5:20 PM 37.4 °F - 35.6 °F 93% 29.79 in 0.5 mi Calm Calm - N/A   Light Drizzle
5:40 PM 37.4 °F - 33.8 °F 87% 29.81 in 0.2 mi Calm Calm - N/A Fog Fog
6:00 PM 37.4 °F - 35.6 °F 93% 29.81 in 0.2 mi Calm Calm - N/A Fog Fog
6:20 PM 37.4 °F - 35.6 °F 93% 29.81 in 0.2 mi Calm Calm - N/A Fog Fog
6:40 PM 37.4 °F - 35.6 °F 93% 29.82 in 0.2 mi Calm Calm - N/A Fog Fog
7:00 PM 37.4 °F - 35.6 °F 93% 29.82 in 0.5 mi Calm Calm - N/A Fog Fog
7:20 PM 37.4 °F - 35.6 °F 93% 29.82 in 0.5 mi Calm Calm - N/A Fog Fog
7:40 PM 39.2 °F - 35.6 °F 87% 29.81 in 0.5 mi Calm Calm - N/A Fog Fog
8:01 PM 37.4 °F - 35.6 °F 93% 29.81 in 0.2 mi Calm Calm - N/A Fog Fog
8:20 PM 39.2 °F - 35.6 °F 87% 29.81 in 0.2 mi Calm Calm - N/A Fog Fog
8:40 PM 37.4 °F - 33.8 °F 87% 29.82 in 0.2 mi Calm Calm - N/A Fog Fog
9:00 PM 37.4 °F - 35.6 °F 93% 29.82 in 0.5 mi Calm Calm - N/A Fog Fog
9:20 PM 37.4 °F - 33.8 °F 87% 29.82 in 0.5 mi Calm Calm - N/A Fog Fog
9:41 PM 37.4 °F - 33.8 °F 87% 29.83 in 0.5 mi Calm Calm - N/A Fog Fog
10:00 PM 37.4 °F - 35.6 °F 93% 29.83 in 0.8 mi Calm Calm - N/A   Overcast
10:20 PM 39.2 °F - 35.6 °F 87% 29.83 in 0.2 mi Calm Calm - N/A Fog Fog
10:40 PM 37.4 °F 34.9 °F 35.6 °F 93% 29.84 in 0.8 mi NNW 3.5 mph - N/A   Overcast
11:20 PM 37.4 °F - 35.6 °F 93% 29.84 in 0.2 mi Calm Calm - N/A Fog Fog
11:40 PM 37.4 °F - 35.6 °F 93% 29.84 in 0.2 mi Calm Calm - N/A Fog Fog